ETHF

Fritzlar Air Base

Airport
ICAO code
ETHF
Summary
ICAO Region
EUR
ICAO Territory
Location

Fritzlar, Hesse,

Coordinates
51° 6' 51" N , 9° 17' 12" E
Metar
ETHF 271020Z 20009KT 9999 FEW020 SCT045 22/10 Q1017 BLU+BLU+

Description

Fritzlar Air Base is a military air field of the German Army Aviation Corps. It is located near the town of Fritzlar in northern Hesse, Germany.

Runways

Designator Length Width Surface Rops
12/30 1040 30 ASP No/No

Airport map

Aerial View

SKYbrary Partners:

Safety knowledge contributed by: